Time,TemperatureF,DewpointF,PressureIn,WindDirection,WindDirectionDegrees,WindSpeedMPH,WindSpeedGustMPH,Humidity,HourlyPrecipIn,Conditions,Clouds,dailyrainin,SoftwareType,DateUTC
2013-03-30 00:00:00,50.7,44.8,30.23,North,0,0.0,0.0,80,0.00,,,0.00,WUHU21623XXSP,2013-03-30 05:00:00,
2013-03-30 00:05:00,50.7,44.8,30.22,North,0,0.0,0.0,80,0.00,,,0.00,WUHU21623XXSP,2013-03-30 05:05:00,
2013-03-30 00:10:00,50.5,44.6,30.22,North,0,0.0,0.0,80,0.00,,,0.00,WUHU21623XXSP,2013-03-30 05:10:00,
2013-03-30 00:15:00,50.5,44.6,30.22,North,0,0.0,0.0,80,0.00,,,0.00,WUHU21623XXSP,2013-03-30 05:15:00,
2013-03-30 00:20:00,50.4,44.6,30.22,North,0,0.0,0.0,81,0.00,,,0.00,WUHU21623XXSP,2013-03-30 05:20:00,
2013-03-30 00:25:00,50.4,44.7,30.21,North,0,0.0,0.0,81,0.00,,,0.00,WUHU21623XXSP,2013-03-30 05:25:00,
2013-03-30 00:30:00,50.2,44.5,30.22,North,0,0.0,0.0,81,0.00,,,0.00,WUHU21623XXSP,2013-03-30 05:30:00,
2013-03-30 00:35:00,50.2,44.9,30.22,North,0,0.0,0.0,82,0.00,,,0.00,WUHU21623XXSP,2013-03-30 05:35:00,
2013-03-30 00:40:00,50.0,44.7,30.21,North,0,0.0,0.0,82,0.00,,,0.00,WUHU21623XXSP,2013-03-30 05:40:00,
2013-03-30 00:45:00,49.8,44.7,30.22,North,0,0.0,0.0,82,0.00,,,0.00,WUHU21623XXSP,2013-03-30 05:45:00,
2013-03-30 00:50:00,49.8,44.5,30.21,North,0,0.0,0.0,82,0.00,,,0.00,WUHU21623XXSP,2013-03-30 05:50:00,
2013-03-30 00:55:00,49.8,44.5,30.21,North,0,0.0,0.0,82,0.00,,,0.00,WUHU21623XXSP,2013-03-30 05:55:00,
2013-03-30 01:00:00,49.6,44.3,30.21,North,0,0.0,0.0,82,0.00,,,0.00,WUHU21623XXSP,2013-03-30 06:00:00,
2013-03-30 01:05:00,49.6,44.3,30.21,North,0,0.0,0.0,82,0.00,,,0.00,WUHU21623XXSP,2013-03-30 06:05:00,
2013-03-30 01:10:00,49.6,44.3,30.21,North,0,0.0,0.0,82,0.00,,,0.00,WUHU21623XXSP,2013-03-30 06:10:00,
2013-03-30 01:15:00,49.5,44.1,30.21,North,0,0.0,0.0,82,0.00,,,0.00,WUHU21623XXSP,2013-03-30 06:15:00,
2013-03-30 01:20:00,49.3,44.0,30.21,North,0,0.0,0.0,82,0.00,,,0.00,WUHU21623XXSP,2013-03-30 06:20:00,
2013-03-30 01:25:00,49.3,44.0,30.21,North,0,0.0,0.0,83,0.00,,,0.00,WUHU21623XXSP,2013-03-30 06:25:00,
2013-03-30 01:30:00,49.3,44.3,30.21,North,0,0.0,0.0,83,0.00,,,0.00,WUHU21623XXSP,2013-03-30 06:30:00,
2013-03-30 01:35:00,49.1,44.3,30.21,North,0,0.0,0.0,83,0.00,,,0.00,WUHU21623XXSP,2013-03-30 06:35:00,
2013-03-30 01:40:00,48.9,43.9,30.20,North,0,0.0,0.0,83,0.00,,,0.00,WUHU21623XXSP,2013-03-30 06:40:00,
2013-03-30 01:45:00,48.9,43.9,30.21,North,0,0.0,0.0,83,0.00,,,0.00,WUHU21623XXSP,2013-03-30 06:45:00,
2013-03-30 01:50:00,48.7,43.9,30.20,North,0,0.0,0.0,83,0.00,,,0.00,WUHU21623XXSP,2013-03-30 06:50:00,
2013-03-30 01:55:00,48.7,43.8,30.20,North,0,0.0,0.0,83,0.00,,,0.00,WUHU21623XXSP,2013-03-30 06:55:00,
2013-03-30 02:00:00,48.7,44.1,30.20,North,0,0.0,0.0,84,0.00,,,0.00,WUHU21623XXSP,2013-03-30 07:00:00,
2013-03-30 02:05:00,48.6,43.9,30.20,North,0,0.0,0.0,84,0.00,,,0.00,WUHU21623XXSP,2013-03-30 07:05:00,
2013-03-30 02:10:00,48.6,43.6,30.20,North,0,0.0,0.0,83,0.00,,,0.00,WUHU21623XXSP,2013-03-30 07:10:00,
2013-03-30 02:15:00,48.4,43.4,30.19,North,0,0.0,0.0,83,0.00,,,0.00,WUHU21623XXSP,2013-03-30 07:15:00,
2013-03-30 02:20:00,48.4,43.4,30.19,North,0,0.0,0.0,83,0.00,,,0.00,WUHU21623XXSP,2013-03-30 07:20:00,
2013-03-30 02:25:00,48.2,43.2,30.19,North,0,0.0,0.0,84,0.00,,,0.00,WUHU21623XXSP,2013-03-30 07:25:00,
2013-03-30 02:30:00,48.0,43.4,30.19,North,0,0.0,0.0,84,0.00,,,0.00,WUHU21623XXSP,2013-03-30 07:30:00,
2013-03-30 02:35:00,48.0,43.4,30.19,North,0,0.0,0.0,84,0.00,,,0.00,WUHU21623XXSP,2013-03-30 07:35:00,
2013-03-30 02:40:00,48.0,43.4,30.18,North,0,0.0,0.0,84,0.00,,,0.00,WUHU21623XXSP,2013-03-30 07:40:00,
2013-03-30 02:45:00,48.0,43.4,30.18,North,0,0.0,0.0,84,0.00,,,0.00,WUHU21623XXSP,2013-03-30 07:45:00,
2013-03-30 02:50:00,48.0,43.4,30.18,North,0,0.0,0.0,84,0.00,,,0.00,WUHU21623XXSP,2013-03-30 07:50:00,
2013-03-30 02:55:00,47.8,43.2,30.18,North,0,0.0,0.0,84,0.00,,,0.00,WUHU21623XXSP,2013-03-30 07:55:00,
2013-03-30 03:00:00,47.8,43.2,30.18,North,0,0.0,0.0,84,0.00,,,0.00,WUHU21623XXSP,2013-03-30 08:00:00,
2013-03-30 03:05:00,47.8,43.2,30.18,North,0,0.0,0.0,84,0.00,,,0.00,WUHU21623XXSP,2013-03-30 08:05:00,
2013-03-30 03:10:00,47.7,43.0,30.18,North,0,0.0,0.0,84,0.00,,,0.00,WUHU21623XXSP,2013-03-30 08:10:00,
2013-03-30 03:15:00,47.5,42.9,30.17,North,0,0.0,0.0,84,0.00,,,0.00,WUHU21623XXSP,2013-03-30 08:15:00,
2013-03-30 03:20:00,47.5,42.9,30.18,North,0,0.0,0.0,84,0.00,,,0.00,WUHU21623XXSP,2013-03-30 08:20:00,
2013-03-30 03:25:00,47.5,43.2,30.18,North,0,0.0,0.0,85,0.00,,,0.00,WUHU21623XXSP,2013-03-30 08:25:00,
2013-03-30 03:30:00,47.5,43.2,30.18,North,0,0.0,0.0,85,0.00,,,0.00,WUHU21623XXSP,2013-03-30 08:30:00,
2013-03-30 03:35:00,47.5,43.2,30.18,North,0,0.0,0.0,85,0.00,,,0.00,WUHU21623XXSP,2013-03-30 08:35:00,
2013-03-30 03:40:00,47.5,43.2,30.18,North,0,0.0,0.0,85,0.00,,,0.00,WUHU21623XXSP,2013-03-30 08:40:00,
2013-03-30 03:45:00,47.5,43.5,30.18,North,0,0.0,0.0,86,0.00,,,0.00,WUHU21623XXSP,2013-03-30 08:45:00,
2013-03-30 03:50:00,47.5,43.5,30.18,North,0,0.0,0.0,86,0.00,,,0.00,WUHU21623XXSP,2013-03-30 08:50:00,
2013-03-30 03:55:00,47.5,43.5,30.18,North,0,0.0,0.0,86,0.00,,,0.00,WUHU21623XXSP,2013-03-30 08:55:00,
2013-03-30 04:00:00,47.5,43.5,30.17,North,0,0.0,0.0,86,0.00,,,0.00,WUHU21623XXSP,2013-03-30 09:00:00,
2013-03-30 04:05:00,47.3,43.3,30.17,North,0,0.0,0.0,86,0.00,,,0.00,WUHU21623XXSP,2013-03-30 09:05:00,
2013-03-30 04:10:00,47.1,43.2,30.17,North,0,0.0,0.0,86,0.00,,,0.00,WUHU21623XXSP,2013-03-30 09:10:00,
2013-03-30 04:15:00,47.1,43.2,30.17,North,0,0.0,0.0,86,0.00,,,0.00,WUHU21623XXSP,2013-03-30 09:15:00,
2013-03-30 04:20:00,47.1,43.2,30.17,North,0,0.0,0.0,86,0.00,,,0.00,WUHU21623XXSP,2013-03-30 09:20:00,
2013-03-30 04:25:00,46.9,43.0,30.17,North,0,0.0,0.0,86,0.00,,,0.00,WUHU21623XXSP,2013-03-30 09:25:00,
2013-03-30 04:30:00,46.9,43.0,30.18,North,0,0.0,0.0,86,0.00,,,0.00,WUHU21623XXSP,2013-03-30 09:30:00,
2013-03-30 04:34:00,46.8,42.8,30.17,North,0,0.0,0.0,86,0.00,,,0.00,WUHU21623XXSP,2013-03-30 09:34:00,
2013-03-30 04:39:00,46.8,42.8,30.17,North,0,0.0,0.0,86,0.00,,,0.00,WUHU21623XXSP,2013-03-30 09:39:00,
2013-03-30 04:44:00,46.8,42.8,30.17,North,0,0.0,0.0,86,0.00,,,0.00,WUHU21623XXSP,2013-03-30 09:44:00,
2013-03-30 04:49:00,46.6,42.6,30.17,North,0,0.0,0.0,86,0.00,,,0.00,WUHU21623XXSP,2013-03-30 09:49:00,
2013-03-30 04:54:00,46.6,42.6,30.17,North,0,0.0,0.0,86,0.00,,,0.00,WUHU21623XXSP,2013-03-30 09:54:00,
2013-03-30 04:59:00,46.8,42.8,30.17,North,0,0.0,0.0,86,0.00,,,0.00,WUHU21623XXSP,2013-03-30 09:59:00,
2013-03-30 05:04:00,46.8,42.8,30.17,North,0,0.0,0.0,86,0.00,,,0.00,WUHU21623XXSP,2013-03-30 10:04:00,
2013-03-30 05:11:00,46.8,42.8,30.17,North,0,0.0,0.0,86,0.00,,,0.00,WUHU21623XXSP,2013-03-30 10:11:00,
2013-03-30 05:16:00,46.8,42.8,30.18,North,0,0.0,0.0,86,0.00,,,0.00,WUHU21623XXSP,2013-03-30 10:16:00,
2013-03-30 05:21:00,46.8,42.8,30.18,North,0,0.0,0.0,86,0.00,,,0.00,WUHU21623XXSP,2013-03-30 10:21:00,
2013-03-30 05:26:00,46.8,42.8,30.17,North,0,0.0,0.0,86,0.00,,,0.00,WUHU21623XXSP,2013-03-30 10:26:00,
2013-03-30 05:31:00,46.8,42.8,30.18,North,0,0.0,0.0,86,0.00,,,0.00,WUHU21623XXSP,2013-03-30 10:31:00,
2013-03-30 05:36:00,46.8,42.8,30.18,North,0,0.0,0.0,86,0.00,,,0.00,WUHU21623XXSP,2013-03-30 10:36:00,
2013-03-30 05:41:00,46.8,42.8,30.18,North,0,0.0,0.0,86,0.00,,,0.00,WUHU21623XXSP,2013-03-30 10:41:00,
2013-03-30 05:46:00,46.8,42.8,30.18,North,0,0.0,0.0,86,0.00,,,0.00,WUHU21623XXSP,2013-03-30 10:46:00,
2013-03-30 05:51:00,46.6,42.8,30.18,North,0,0.0,0.0,86,0.00,,,0.00,WUHU21623XXSP,2013-03-30 10:51:00,
2013-03-30 05:56:00,46.6,42.9,30.17,North,0,0.0,0.0,87,0.00,,,0.00,WUHU21623XXSP,2013-03-30 10:56:00,
2013-03-30 06:01:00,46.6,42.9,30.18,North,0,0.0,0.0,87,0.00,,,0.00,WUHU21623XXSP,2013-03-30 11:01:00,
2013-03-30 06:12:00,46.6,42.9,30.18,North,0,0.0,0.0,87,0.00,,,0.00,WUHU21623XXSP,2013-03-30 11:12:00,
2013-03-30 06:17:00,46.4,42.5,30.18,North,0,0.0,0.0,86,0.00,,,0.00,WUHU21623XXSP,2013-03-30 11:17:00,
2013-03-30 06:22:00,46.2,42.6,30.18,North,0,0.0,0.0,87,0.00,,,0.00,WUHU21623XXSP,2013-03-30 11:22:00,
2013-03-30 06:27:00,46.2,42.6,30.18,North,0,0.0,0.0,87,0.00,,,0.00,WUHU21623XXSP,2013-03-30 11:27:00,
2013-03-30 06:32:00,46.2,42.6,30.18,North,0,0.0,0.0,87,0.00,,,0.00,WUHU21623XXSP,2013-03-30 11:32:00,
2013-03-30 06:37:00,46.2,42.6,30.18,North,0,0.0,0.0,87,0.00,,,0.00,WUHU21623XXSP,2013-03-30 11:37:00,
2013-03-30 06:42:00,46.2,42.6,30.18,North,0,0.0,0.0,87,0.00,,,0.00,WUHU21623XXSP,2013-03-30 11:42:00,
2013-03-30 06:47:00,46.2,42.6,30.18,North,0,0.0,0.0,87,0.00,,,0.00,WUHU21623XXSP,2013-03-30 11:47:00,
2013-03-30 06:52:00,46.2,42.6,30.18,North,0,0.0,0.0,87,0.00,,,0.00,WUHU21623XXSP,2013-03-30 11:52:00,
2013-03-30 06:57:00,46.2,42.6,30.18,North,0,0.0,0.0,87,0.00,,,0.00,WUHU21623XXSP,2013-03-30 11:57:00,
2013-03-30 07:02:00,46.2,42.6,30.18,North,0,0.0,0.0,87,0.00,,,0.00,WUHU21623XXSP,2013-03-30 12:02:00,
2013-03-30 07:07:00,46.4,42.8,30.19,North,0,0.0,0.0,87,0.00,,,0.00,WUHU21623XXSP,2013-03-30 12:07:00,
2013-03-30 07:12:00,46.2,42.6,30.18,North,0,0.0,0.0,87,0.00,,,0.00,WUHU21623XXSP,2013-03-30 12:12:00,
2013-03-30 07:17:00,46.6,42.9,30.18,North,0,0.0,0.0,87,0.00,,,0.00,WUHU21623XXSP,2013-03-30 12:17:00,
2013-03-30 07:22:00,46.6,42.9,30.19,North,0,0.0,0.0,87,0.00,,,0.00,WUHU21623XXSP,2013-03-30 12:22:00,
2013-03-30 07:27:00,46.8,43.4,30.18,North,0,0.0,0.0,88,0.00,,,0.00,WUHU21623XXSP,2013-03-30 12:27:00,
2013-03-30 07:32:00,46.9,43.6,30.19,North,0,0.0,0.0,88,0.00,,,0.00,WUHU21623XXSP,2013-03-30 12:32:00,
2013-03-30 07:37:00,47.1,43.6,30.19,North,0,0.0,0.0,88,0.00,,,0.00,WUHU21623XXSP,2013-03-30 12:37:00,
2013-03-30 07:42:00,47.5,44.5,30.19,North,0,0.0,0.0,89,0.00,,,0.00,WUHU21623XXSP,2013-03-30 12:42:00,
2013-03-30 07:47:00,47.8,44.8,30.20,North,0,0.0,0.0,89,0.00,,,0.00,WUHU21623XXSP,2013-03-30 12:47:00,
2013-03-30 07:52:00,48.0,44.8,30.20,North,0,0.0,0.0,89,0.00,,,0.00,WUHU21623XXSP,2013-03-30 12:52:00,
2013-03-30 07:57:00,48.4,45.3,30.20,North,0,0.0,0.0,89,0.00,,,0.00,WUHU21623XXSP,2013-03-30 12:57:00,
2013-03-30 08:02:00,48.9,46.1,30.21,North,0,0.0,0.0,90,0.00,,,0.00,WUHU21623XXSP,2013-03-30 13:02:00,
2013-03-30 08:07:00,49.6,46.8,30.21,North,0,0.0,0.0,90,0.00,,,0.00,WUHU21623XXSP,2013-03-30 13:07:00,
2013-03-30 08:12:00,50.5,47.9,30.21,North,0,0.0,0.0,91,0.00,,,0.00,WUHU21623XXSP,2013-03-30 13:12:00,
2013-03-30 08:17:00,51.1,48.5,30.21,North,0,0.0,0.0,91,0.00,,,0.00,WUHU21623XXSP,2013-03-30 13:17:00,
2013-03-30 08:22:00,51.8,49.2,30.20,North,0,0.0,0.0,91,0.00,,,0.00,WUHU21623XXSP,2013-03-30 13:22:00,
2013-03-30 08:27:00,52.9,50.3,30.20,North,0,0.0,0.0,91,0.00,,,0.00,WUHU21623XXSP,2013-03-30 13:27:00,
2013-03-30 08:32:00,53.4,50.8,30.20,North,0,0.0,0.0,91,0.00,,,0.00,WUHU21623XXSP,2013-03-30 13:32:00,
2013-03-30 08:37:00,54.1,51.2,30.20,North,0,0.0,0.0,91,0.00,,,0.00,WUHU21623XXSP,2013-03-30 13:37:00,
2013-03-30 08:42:00,55.0,52.4,30.20,North,0,0.0,0.0,91,0.00,,,0.00,WUHU21623XXSP,2013-03-30 13:42:00,
2013-03-30 08:47:00,55.6,53.3,30.20,North,0,0.0,0.0,92,0.00,,,0.00,WUHU21623XXSP,2013-03-30 13:47:00,
2013-03-30 08:52:00,56.5,54.2,30.20,North,0,0.0,0.0,92,0.00,,,0.00,WUHU21623XXSP,2013-03-30 13:52:00,
2013-03-30 08:57:00,57.7,55.1,30.20,North,0,0.0,0.0,91,0.00,,,0.00,WUHU21623XXSP,2013-03-30 13:57:00,
2013-03-30 09:02:00,58.6,55.8,30.20,North,0,0.0,0.0,91,0.00,,,0.00,WUHU21623XXSP,2013-03-30 14:02:00,
2013-03-30 09:07:00,59.2,56.3,30.20,North,0,0.0,0.0,90,0.00,,,0.00,WUHU21623XXSP,2013-03-30 14:07:00,
2013-03-30 09:12:00,60.1,56.9,30.20,North,0,0.0,0.0,89,0.00,,,0.00,WUHU21623XXSP,2013-03-30 14:12:00,
2013-03-30 09:17:00,60.8,57.3,30.20,North,0,0.0,0.0,88,0.00,,,0.00,WUHU21623XXSP,2013-03-30 14:17:00,
2013-03-30 09:22:00,61.3,57.1,30.20,North,0,0.0,0.0,86,0.00,,,0.00,WUHU21623XXSP,2013-03-30 14:22:00,
2013-03-30 09:27:00,62.4,57.5,30.20,North,0,0.0,0.0,84,0.00,,,0.00,WUHU21623XXSP,2013-03-30 14:27:00,
2013-03-30 09:32:00,63.0,57.7,30.20,North,0,0.0,0.0,83,0.00,,,0.00,WUHU21623XXSP,2013-03-30 14:32:00,
2013-03-30 09:37:00,63.5,57.9,30.20,North,0,0.0,0.0,82,0.00,,,0.00,WUHU21623XXSP,2013-03-30 14:37:00,
2013-03-30 09:42:00,64.2,57.9,30.20,North,0,0.0,0.0,80,0.00,,,0.00,WUHU21623XXSP,2013-03-30 14:42:00,
2013-03-30 09:47:00,64.9,58.3,30.19,North,0,0.0,0.0,79,0.00,,,0.00,WUHU21623XXSP,2013-03-30 14:47:00,
2013-03-30 09:52:00,65.1,58.1,30.19,North,0,0.0,0.0,78,0.00,,,0.00,WUHU21623XXSP,2013-03-30 14:52:00,
2013-03-30 09:57:00,65.8,58.0,30.19,North,0,0.0,0.0,76,0.00,,,0.00,WUHU21623XXSP,2013-03-30 14:57:00,
2013-03-30 10:02:00,66.0,57.8,30.19,North,0,0.0,0.0,75,0.00,,,0.00,WUHU21623XXSP,2013-03-30 15:02:00,
2013-03-30 10:07:00,66.4,58.2,30.19,North,0,0.0,0.0,75,0.00,,,0.00,WUHU21623XXSP,2013-03-30 15:07:00,
2013-03-30 10:12:00,66.9,58.4,30.19,North,0,0.0,0.0,74,0.00,,,0.00,WUHU21623XXSP,2013-03-30 15:12:00,
2013-03-30 10:17:00,67.1,58.2,30.19,North,0,0.0,0.0,73,0.00,,,0.00,WUHU21623XXSP,2013-03-30 15:17:00,
2013-03-30 10:22:00,67.6,58.3,30.19,North,0,0.0,0.0,72,0.00,,,0.00,WUHU21623XXSP,2013-03-30 15:22:00,
2013-03-30 10:27:00,68.2,58.5,30.19,North,0,0.0,0.0,71,0.00,,,0.00,WUHU21623XXSP,2013-03-30 15:27:00,
2013-03-30 10:32:00,68.5,58.4,30.19,North,0,0.0,0.0,70,0.00,,,0.00,WUHU21623XXSP,2013-03-30 15:32:00,
2013-03-30 10:37:00,68.7,57.7,30.19,North,0,0.0,0.0,68,0.00,,,0.00,WUHU21623XXSP,2013-03-30 15:37:00,
2013-03-30 10:42:00,69.4,58.0,30.19,North,0,0.0,0.0,67,0.00,,,0.00,WUHU21623XXSP,2013-03-30 15:42:00,
2013-03-30 10:47:00,69.6,57.7,30.19,North,0,0.0,0.0,66,0.00,,,0.00,WUHU21623XXSP,2013-03-30 15:47:00,
2013-03-30 10:52:00,70.2,57.8,30.19,North,0,0.0,0.0,65,0.00,,,0.00,WUHU21623XXSP,2013-03-30 15:52:00,
2013-03-30 10:57:00,70.5,57.7,30.19,North,0,0.0,0.0,64,0.00,,,0.00,WUHU21623XXSP,2013-03-30 15:57:00,
2013-03-30 11:03:00,70.7,57.1,30.19,North,0,0.0,0.0,62,0.00,,,0.00,WUHU21623XXSP,2013-03-30 16:03:00,
2013-03-30 11:08:00,70.9,57.2,30.19,North,0,0.0,0.0,62,0.00,,,0.00,WUHU21623XXSP,2013-03-30 16:08:00,
2013-03-30 11:13:00,71.2,57.1,30.19,North,0,0.0,0.0,61,0.00,,,0.00,WUHU21623XXSP,2013-03-30 16:13:00,
2013-03-30 11:18:00,71.2,57.1,30.18,North,0,0.0,0.0,61,0.00,,,0.00,WUHU21623XXSP,2013-03-30 16:18:00,
2013-03-30 11:23:00,71.4,56.9,30.18,North,0,0.0,0.0,60,0.00,,,0.00,WUHU21623XXSP,2013-03-30 16:23:00,
2013-03-30 11:28:00,71.8,57.2,30.19,North,0,0.0,0.0,60,0.00,,,0.00,WUHU21623XXSP,2013-03-30 16:28:00,
2013-03-30 11:33:00,72.1,57.0,30.19,North,0,0.0,0.0,59,0.00,,,0.00,WUHU21623XXSP,2013-03-30 16:33:00,
2013-03-30 11:38:00,72.5,57.3,30.18,North,0,0.0,0.0,59,0.00,,,0.00,WUHU21623XXSP,2013-03-30 16:38:00,
2013-03-30 11:43:00,72.9,57.1,30.18,North,0,0.0,0.0,58,0.00,,,0.00,WUHU21623XXSP,2013-03-30 16:43:00,
2013-03-30 11:48:00,73.2,57.0,30.18,North,0,0.0,0.0,57,0.00,,,0.00,WUHU21623XXSP,2013-03-30 16:48:00,
2013-03-30 11:53:00,73.8,57.0,30.18,North,0,0.0,0.0,56,0.00,,,0.00,WUHU21623XXSP,2013-03-30 16:53:00,
2013-03-30 11:58:00,74.5,57.7,30.18,North,0,0.0,0.0,56,0.00,,,0.00,WUHU21623XXSP,2013-03-30 16:58:00,
2013-03-30 12:03:00,75.0,57.2,30.18,North,0,0.0,0.0,54,0.00,,,0.00,WUHU21623XXSP,2013-03-30 17:03:00,
2013-03-30 12:08:00,75.4,56.6,30.18,North,0,0.0,0.0,52,0.00,,,0.00,WUHU21623XXSP,2013-03-30 17:08:00,
2013-03-30 12:13:00,75.4,56.6,30.18,North,0,0.0,0.0,52,0.00,,,0.00,WUHU21623XXSP,2013-03-30 17:13:00,
2013-03-30 12:18:00,75.6,56.2,30.18,North,0,0.0,0.0,51,0.00,,,0.00,WUHU21623XXSP,2013-03-30 17:18:00,
2013-03-30 12:23:00,75.7,56.4,30.18,North,0,0.0,0.0,51,0.00,,,0.00,WUHU21623XXSP,2013-03-30 17:23:00,
2013-03-30 12:28:00,76.1,56.6,30.18,North,0,0.0,0.0,50,0.00,,,0.00,WUHU21623XXSP,2013-03-30 17:28:00,
2013-03-30 12:33:00,76.6,56.1,30.18,North,0,0.0,0.0,49,0.00,,,0.00,WUHU21623XXSP,2013-03-30 17:33:00,
2013-03-30 12:38:00,77.2,56.6,30.18,North,0,0.0,0.0,49,0.00,,,0.00,WUHU21623XXSP,2013-03-30 17:38:00,
2013-03-30 12:43:00,77.5,56.9,30.18,North,0,0.0,0.0,49,0.00,,,0.00,WUHU21623XXSP,2013-03-30 17:43:00,
2013-03-30 12:48:00,77.9,57.2,30.18,North,0,0.0,0.0,49,0.00,,,0.00,WUHU21623XXSP,2013-03-30 17:48:00,
2013-03-30 12:53:00,78.4,55.3,30.17,North,0,0.0,0.0,45,0.00,,,0.00,WUHU21623XXSP,2013-03-30 17:53:00,
2013-03-30 12:58:00,78.4,55.3,30.17,North,0,0.0,0.0,45,0.00,,,0.00,WUHU21623XXSP,2013-03-30 17:58:00,
2013-03-30 13:03:00,78.1,54.9,30.17,North,0,0.0,0.0,45,0.00,,,0.00,WUHU21623XXSP,2013-03-30 18:03:00,
2013-03-30 13:08:00,78.1,55.5,30.17,North,0,0.0,0.0,46,0.00,,,0.00,WUHU21623XXSP,2013-03-30 18:08:00,
2013-03-30 13:13:00,78.3,55.1,30.17,North,0,0.0,0.0,45,0.00,,,0.00,WUHU21623XXSP,2013-03-30 18:13:00,
2013-03-30 13:18:00,78.4,55.3,30.16,North,0,0.0,0.0,45,0.00,,,0.00,WUHU21623XXSP,2013-03-30 18:18:00,
2013-03-30 13:23:00,78.8,55.0,30.16,North,0,0.0,0.0,44,0.00,,,0.00,WUHU21623XXSP,2013-03-30 18:23:00,
2013-03-30 13:28:00,79.0,55.1,30.15,North,0,0.0,0.0,44,0.00,,,0.00,WUHU21623XXSP,2013-03-30 18:28:00,
2013-03-30 13:33:00,79.0,55.1,30.15,North,0,0.0,0.0,44,0.00,,,0.00,WUHU21623XXSP,2013-03-30 18:33:00,
2013-03-30 13:38:00,79.0,55.1,30.15,North,0,0.0,0.0,44,0.00,,,0.00,WUHU21623XXSP,2013-03-30 18:38:00,
2013-03-30 13:43:00,79.0,55.7,30.15,North,0,0.0,0.0,45,0.00,,,0.00,WUHU21623XXSP,2013-03-30 18:43:00,
2013-03-30 13:48:00,79.3,54.8,30.15,North,0,0.0,0.0,43,0.00,,,0.00,WUHU21623XXSP,2013-03-30 18:48:00,
2013-03-30 13:53:00,79.5,55.6,30.15,North,0,0.0,0.0,44,0.00,,,0.00,WUHU21623XXSP,2013-03-30 18:53:00,
2013-03-30 13:58:00,79.5,55.0,30.15,North,0,0.0,0.0,43,0.00,,,0.00,WUHU21623XXSP,2013-03-30 18:58:00,
2013-03-30 14:03:00,79.5,55.0,30.14,North,0,0.0,0.0,43,0.00,,,0.00,WUHU21623XXSP,2013-03-30 19:03:00,
2013-03-30 14:08:00,79.5,55.0,30.14,North,0,0.0,0.0,43,0.00,,,0.00,WUHU21623XXSP,2013-03-30 19:08:00,
2013-03-30 14:13:00,79.5,55.0,30.14,North,0,0.0,0.0,43,0.00,,,0.00,WUHU21623XXSP,2013-03-30 19:13:00,
2013-03-30 14:18:00,79.7,55.2,30.13,North,0,0.0,0.0,43,0.00,,,0.00,WUHU21623XXSP,2013-03-30 19:18:00,
2013-03-30 14:23:00,79.9,54.7,30.13,North,0,0.0,0.0,42,0.00,,,0.00,WUHU21623XXSP,2013-03-30 19:23:00,
2013-03-30 14:28:00,79.7,54.7,30.13,North,0,0.0,0.0,42,0.00,,,0.00,WUHU21623XXSP,2013-03-30 19:28:00,
2013-03-30 14:33:00,79.9,55.3,30.13,North,0,0.0,0.0,43,0.00,,,0.00,WUHU21623XXSP,2013-03-30 19:33:00,
2013-03-30 14:38:00,79.7,55.2,30.13,North,0,0.0,0.0,43,0.00,,,0.00,WUHU21623XXSP,2013-03-30 19:38:00,
2013-03-30 14:43:00,79.5,55.0,30.13,North,0,0.0,0.0,43,0.00,,,0.00,WUHU21623XXSP,2013-03-30 19:43:00,
2013-03-30 14:48:00,79.3,55.5,30.12,North,0,0.0,0.0,44,0.00,,,0.00,WUHU21623XXSP,2013-03-30 19:48:00,
2013-03-30 14:53:00,79.5,55.6,30.12,North,0,0.0,0.0,44,0.00,,,0.00,WUHU21623XXSP,2013-03-30 19:53:00,
2013-03-30 14:58:00,79.5,55.6,30.12,North,0,0.0,0.0,44,0.00,,,0.00,WUHU21623XXSP,2013-03-30 19:58:00,
2013-03-30 15:03:00,79.3,54.8,30.12,North,0,0.0,0.0,43,0.00,,,0.00,WUHU21623XXSP,2013-03-30 20:03:00,
2013-03-30 15:08:00,79.0,55.1,30.12,North,0,0.0,0.0,44,0.00,,,0.00,WUHU21623XXSP,2013-03-30 20:08:00,
2013-03-30 15:13:00,78.6,55.4,30.12,North,0,0.0,0.0,45,0.00,,,0.00,WUHU21623XXSP,2013-03-30 20:13:00,
2013-03-30 15:18:00,77.7,56.4,30.12,North,0,0.0,0.0,48,0.00,,,0.00,WUHU21623XXSP,2013-03-30 20:18:00,
2013-03-30 15:23:00,77.2,55.7,30.12,North,0,0.0,0.0,47,0.00,,,0.00,WUHU21623XXSP,2013-03-30 20:23:00,
2013-03-30 15:28:00,76.6,55.5,30.12,North,0,0.0,0.0,48,0.00,,,0.00,WUHU21623XXSP,2013-03-30 20:28:00,
2013-03-30 15:33:00,75.6,55.7,30.11,North,0,0.0,0.0,50,0.00,,,0.00,WUHU21623XXSP,2013-03-30 20:33:00,
2013-03-30 15:38:00,75.0,55.7,30.12,North,0,0.0,0.0,51,0.00,,,0.00,WUHU21623XXSP,2013-03-30 20:38:00,
2013-03-30 15:43:00,74.8,56.0,30.11,North,0,0.0,0.0,52,0.00,,,0.00,WUHU21623XXSP,2013-03-30 20:43:00,
2013-03-30 15:48:00,74.5,56.2,30.11,North,0,0.0,0.0,53,0.00,,,0.00,WUHU21623XXSP,2013-03-30 20:48:00,
2013-03-30 15:53:00,74.5,56.2,30.10,North,0,0.0,0.0,53,0.00,,,0.00,WUHU21623XXSP,2013-03-30 20:53:00,
2013-03-30 15:58:00,74.8,57.1,30.11,North,0,0.0,0.0,54,0.00,,,0.00,WUHU21623XXSP,2013-03-30 20:58:00,
2013-03-30 16:03:00,75.2,57.4,30.11,North,0,0.0,0.0,54,0.00,,,0.00,WUHU21623XXSP,2013-03-30 21:03:00,
2013-03-30 16:08:00,75.4,57.1,30.10,North,0,0.0,0.0,53,0.00,,,0.00,WUHU21623XXSP,2013-03-30 21:08:00,
2013-03-30 16:13:00,75.0,56.7,30.10,North,0,0.0,0.0,53,0.00,,,0.00,WUHU21623XXSP,2013-03-30 21:13:00,
2013-03-30 16:18:00,74.1,56.2,30.10,North,0,0.0,0.0,54,0.00,,,0.00,WUHU21623XXSP,2013-03-30 21:18:00,
2013-03-30 16:23:00,73.6,56.0,30.10,North,0,0.0,0.0,55,0.00,,,0.00,WUHU21623XXSP,2013-03-30 21:23:00,
2013-03-30 16:28:00,73.0,55.8,30.10,North,0,0.0,0.0,55,0.00,,,0.00,WUHU21623XXSP,2013-03-30 21:28:00,
2013-03-30 16:33:00,72.3,55.7,30.09,North,0,0.0,0.0,56,0.00,,,0.00,WUHU21623XXSP,2013-03-30 21:33:00,
2013-03-30 16:38:00,71.8,55.7,30.09,North,0,0.0,0.0,57,0.00,,,0.00,WUHU21623XXSP,2013-03-30 21:38:00,
2013-03-30 16:43:00,71.6,56.0,30.09,North,0,0.0,0.0,58,0.00,,,0.00,WUHU21623XXSP,2013-03-30 21:43:00,
2013-03-30 16:48:00,70.9,55.9,30.09,North,0,0.0,0.0,59,0.00,,,0.00,WUHU21623XXSP,2013-03-30 21:48:00,
2013-03-30 16:53:00,70.9,55.9,30.09,North,0,0.0,0.0,59,0.00,,,0.00,WUHU21623XXSP,2013-03-30 21:53:00,
2013-03-30 16:58:00,71.2,56.7,30.09,North,0,0.0,0.0,60,0.00,,,0.00,WUHU21623XXSP,2013-03-30 21:58:00,
2013-03-30 17:03:00,71.8,56.7,30.09,North,0,0.0,0.0,59,0.00,,,0.00,WUHU21623XXSP,2013-03-30 22:03:00,
2013-03-30 17:08:00,71.8,56.7,30.09,North,0,0.0,0.0,59,0.00,,,0.00,WUHU21623XXSP,2013-03-30 22:08:00,
2013-03-30 17:13:00,71.8,56.7,30.08,North,0,0.0,0.0,59,0.00,,,0.00,WUHU21623XXSP,2013-03-30 22:13:00,
2013-03-30 17:18:00,71.6,56.5,30.08,North,0,0.0,0.0,59,0.00,,,0.00,WUHU21623XXSP,2013-03-30 22:18:00,
2013-03-30 17:23:00,71.4,56.9,30.07,North,0,0.0,0.0,60,0.00,,,0.00,WUHU21623XXSP,2013-03-30 22:23:00,
2013-03-30 17:28:00,71.4,56.9,30.07,North,0,0.0,0.0,60,0.00,,,0.00,WUHU21623XXSP,2013-03-30 22:28:00,
2013-03-30 17:33:00,71.4,57.3,30.06,North,0,0.0,0.0,61,0.00,,,0.00,WUHU21623XXSP,2013-03-30 22:33:00,
2013-03-30 17:38:00,71.2,57.1,30.05,North,0,0.0,0.0,61,0.00,,,0.00,WUHU21623XXSP,2013-03-30 22:38:00,
2013-03-30 17:43:00,70.9,56.8,30.05,North,0,0.0,0.0,61,0.00,,,0.00,WUHU21623XXSP,2013-03-30 22:43:00,
2013-03-30 17:48:00,70.9,56.8,30.05,North,0,0.0,0.0,62,0.00,,,0.00,WUHU21623XXSP,2013-03-30 22:48:00,
2013-03-30 17:53:00,70.5,56.9,30.06,North,0,0.0,0.0,62,0.00,,,0.00,WUHU21623XXSP,2013-03-30 22:53:00,
2013-03-30 17:58:00,70.3,57.1,30.06,North,0,0.0,0.0,63,0.00,,,0.00,WUHU21623XXSP,2013-03-30 22:58:00,
2013-03-30 18:03:00,70.3,57.1,30.06,North,0,0.0,0.0,63,0.00,,,0.00,WUHU21623XXSP,2013-03-30 23:03:00,
2013-03-30 18:08:00,70.0,56.8,30.06,North,0,0.0,0.0,63,0.00,,,0.00,WUHU21623XXSP,2013-03-30 23:08:00,
2013-03-30 18:13:00,70.0,57.2,30.07,North,0,0.0,0.0,64,0.00,,,0.00,WUHU21623XXSP,2013-03-30 23:13:00,
2013-03-30 18:18:00,70.0,57.1,30.07,North,0,0.0,0.0,64,0.00,,,0.00,WUHU21623XXSP,2013-03-30 23:18:00,
2013-03-30 18:23:00,70.0,57.2,30.07,North,0,0.0,0.0,64,0.00,,,0.00,WUHU21623XXSP,2013-03-30 23:23:00,
2013-03-30 18:28:00,70.2,57.4,30.06,North,0,0.0,0.0,64,0.00,,,0.00,WUHU21623XXSP,2013-03-30 23:28:00,
2013-03-30 18:33:00,70.0,57.2,30.06,North,0,0.0,0.0,64,0.00,,,0.00,WUHU21623XXSP,2013-03-30 23:33:00,
2013-03-30 18:38:00,70.0,57.2,30.06,North,0,0.0,0.0,64,0.00,,,0.00,WUHU21623XXSP,2013-03-30 23:38:00,
2013-03-30 18:43:00,69.6,56.9,30.07,North,0,0.0,0.0,64,0.00,,,0.00,WUHU21623XXSP,2013-03-30 23:43:00,
2013-03-30 18:48:00,69.4,57.1,30.07,North,0,0.0,0.0,65,0.00,,,0.00,WUHU21623XXSP,2013-03-30 23:48:00,
2013-03-30 18:53:00,68.9,56.6,30.07,North,0,0.0,0.0,65,0.00,,,0.00,WUHU21623XXSP,2013-03-30 23:53:00,
2013-03-30 18:58:00,68.5,56.3,30.07,North,0,0.0,0.0,65,0.00,,,0.00,WUHU21623XXSP,2013-03-30 23:58:00,
2013-03-30 19:03:00,68.2,56.4,30.07,North,0,0.0,0.0,66,0.00,,,0.00,WUHU21623XXSP,2013-03-31 00:03:00,
2013-03-30 19:08:00,67.8,56.4,30.07,North,0,0.0,0.0,67,0.00,,,0.00,WUHU21623XXSP,2013-03-31 00:08:00,
2013-03-30 19:13:00,67.3,55.9,30.07,North,0,0.0,0.0,67,0.00,,,0.00,WUHU21623XXSP,2013-03-31 00:13:00,
2013-03-30 19:18:00,66.9,56.0,30.07,North,0,0.0,0.0,68,0.00,,,0.00,WUHU21623XXSP,2013-03-31 00:18:00,
2013-03-30 19:23:00,66.7,55.8,30.06,North,0,0.0,0.0,68,0.00,,,0.00,WUHU21623XXSP,2013-03-31 00:23:00,
2013-03-30 19:28:00,66.2,55.3,30.07,North,0,0.0,0.0,68,0.00,,,0.00,WUHU21623XXSP,2013-03-31 00:28:00,
2013-03-30 19:33:00,65.8,55.4,30.06,North,0,0.0,0.0,69,0.00,,,0.00,WUHU21623XXSP,2013-03-31 00:33:00,
2013-03-30 19:38:00,65.5,55.4,30.06,North,0,0.0,0.0,70,0.00,,,0.00,WUHU21623XXSP,2013-03-31 00:38:00,
2013-03-30 19:43:00,65.1,55.1,30.06,North,0,0.0,0.0,70,0.00,,,0.00,WUHU21623XXSP,2013-03-31 00:43:00,
2013-03-30 19:48:00,64.8,54.8,30.07,North,0,0.0,0.0,70,0.00,,,0.00,WUHU21623XXSP,2013-03-31 00:48:00,
2013-03-30 19:53:00,64.4,54.9,30.06,North,0,0.0,0.0,71,0.00,,,0.00,WUHU21623XXSP,2013-03-31 00:53:00,
2013-03-30 19:58:00,64.0,54.5,30.07,North,0,0.0,0.0,71,0.00,,,0.00,WUHU21623XXSP,2013-03-31 00:58:00,
2013-03-30 20:03:00,63.7,54.5,30.07,North,0,0.0,0.0,72,0.00,,,0.00,WUHU21623XXSP,2013-03-31 01:03:00,
2013-03-30 20:08:00,63.3,54.1,30.07,North,0,0.0,0.0,72,0.00,,,0.00,WUHU21623XXSP,2013-03-31 01:08:00,
2013-03-30 20:13:00,63.1,54.3,30.07,North,0,0.0,0.0,73,0.00,,,0.00,WUHU21623XXSP,2013-03-31 01:13:00,
2013-03-30 20:18:00,62.8,54.1,30.06,North,0,0.0,0.0,73,0.00,,,0.00,WUHU21623XXSP,2013-03-31 01:18:00,
2013-03-30 20:23:00,62.4,54.0,30.06,North,0,0.0,0.0,74,0.00,,,0.00,WUHU21623XXSP,2013-03-31 01:23:00,
2013-03-30 20:28:00,62.2,53.8,30.06,North,0,0.0,0.0,74,0.00,,,0.00,WUHU21623XXSP,2013-03-31 01:28:00,
2013-03-30 20:33:00,61.9,53.5,30.06,North,0,0.0,0.0,74,0.00,,,0.00,WUHU21623XXSP,2013-03-31 01:33:00,
2013-03-30 20:38:00,61.7,53.7,30.05,North,0,0.0,0.0,75,0.00,,,0.00,WUHU21623XXSP,2013-03-31 01:38:00,
2013-03-30 20:43:00,61.3,53.5,30.05,North,0,0.0,0.0,75,0.00,,,0.00,WUHU21623XXSP,2013-03-31 01:43:00,
2013-03-30 20:48:00,61.2,53.6,30.06,North,0,0.0,0.0,76,0.00,,,0.00,WUHU21623XXSP,2013-03-31 01:48:00,
2013-03-30 20:53:00,61.0,53.4,30.06,North,0,0.0,0.0,76,0.00,,,0.00,WUHU21623XXSP,2013-03-31 01:53:00,
2013-03-30 20:58:00,60.6,53.8,30.06,North,0,0.0,0.0,78,0.00,,,0.00,WUHU21623XXSP,2013-03-31 01:58:00,
2013-03-30 21:03:00,60.6,53.8,30.06,North,0,0.0,0.0,78,0.00,,,0.00,WUHU21623XXSP,2013-03-31 02:03:00,
2013-03-30 21:08:00,60.4,53.6,30.07,North,0,0.0,0.0,78,0.00,,,0.00,WUHU21623XXSP,2013-03-31 02:08:00,
2013-03-30 21:13:00,60.4,54.0,30.07,North,0,0.0,0.0,79,0.00,,,0.00,WUHU21623XXSP,2013-03-31 02:13:00,
2013-03-30 21:18:00,60.1,53.6,30.07,North,0,0.0,0.0,79,0.00,,,0.00,WUHU21623XXSP,2013-03-31 02:18:00,
2013-03-30 21:23:00,60.1,53.6,30.07,North,0,0.0,0.0,79,0.00,,,0.00,WUHU21623XXSP,2013-03-31 02:23:00,
2013-03-30 21:28:00,59.9,53.8,30.07,North,0,0.0,0.0,80,0.00,,,0.00,WUHU21623XXSP,2013-03-31 02:28:00,
2013-03-30 21:33:00,59.7,53.6,30.07,North,0,0.0,0.0,80,0.00,,,0.00,WUHU21623XXSP,2013-03-31 02:33:00,
2013-03-30 21:38:00,59.5,53.4,30.07,North,0,0.0,0.0,80,0.00,,,0.00,WUHU21623XXSP,2013-03-31 02:38:00,
2013-03-30 21:43:00,59.5,53.4,30.07,North,0,0.0,0.0,80,0.00,,,0.00,WUHU21623XXSP,2013-03-31 02:43:00,
2013-03-30 21:48:00,59.4,53.2,30.07,North,0,0.0,0.0,80,0.00,,,0.00,WUHU21623XXSP,2013-03-31 02:48:00,
2013-03-30 21:53:00,59.2,53.4,30.07,North,0,0.0,0.0,81,0.00,,,0.00,WUHU21623XXSP,2013-03-31 02:53:00,
2013-03-30 21:58:00,59.0,53.2,30.07,North,0,0.0,0.0,81,0.00,,,0.00,WUHU21623XXSP,2013-03-31 02:58:00,
2013-03-30 22:03:00,58.8,53.0,30.08,North,0,0.0,0.0,81,0.00,,,0.00,WUHU21623XXSP,2013-03-31 03:03:00,
2013-03-30 22:08:00,58.8,53.0,30.08,North,0,0.0,0.0,81,0.00,,,0.00,WUHU21623XXSP,2013-03-31 03:08:00,
2013-03-30 22:14:00,58.6,52.8,30.08,North,0,0.0,0.0,81,0.00,,,0.00,WUHU21623XXSP,2013-03-31 03:14:00,
2013-03-30 22:19:00,58.3,52.8,30.07,North,0,0.0,0.0,82,0.00,,,0.00,WUHU21623XXSP,2013-03-31 03:19:00,
2013-03-30 22:24:00,58.3,52.8,30.08,North,0,0.0,0.0,82,0.00,,,0.00,WUHU21623XXSP,2013-03-31 03:24:00,
2013-03-30 22:29:00,57.9,52.4,30.08,North,0,0.0,0.0,82,0.00,,,0.00,WUHU21623XXSP,2013-03-31 03:29:00,
2013-03-30 22:34:00,57.9,52.4,30.08,North,0,0.0,0.0,82,0.00,,,0.00,WUHU21623XXSP,2013-03-31 03:34:00,
2013-03-30 22:39:00,57.7,52.6,30.08,North,0,0.0,0.0,83,0.00,,,0.00,WUHU21623XXSP,2013-03-31 03:39:00,
2013-03-30 22:44:00,57.7,52.6,30.08,North,0,0.0,0.0,83,0.00,,,0.00,WUHU21623XXSP,2013-03-31 03:44:00,
2013-03-30 22:49:00,57.7,52.6,30.08,North,0,0.0,0.0,83,0.00,,,0.00,WUHU21623XXSP,2013-03-31 03:49:00,
2013-03-30 22:54:00,57.6,52.7,30.08,North,0,0.0,0.0,84,0.00,,,0.00,WUHU21623XXSP,2013-03-31 03:54:00,
2013-03-30 22:59:00,57.6,52.7,30.08,North,0,0.0,0.0,84,0.00,,,0.00,WUHU21623XXSP,2013-03-31 03:59:00,
2013-03-30 23:00:00,57.6,52.7,30.08,North,0,0.0,0.0,84,0.00,,,0.00,WUHU21623XXSP,2013-03-31 04:00:00,
2013-03-30 23:05:00,57.4,52.2,30.08,North,0,0.0,0.0,83,0.00,,,0.00,WUHU21623XXSP,2013-03-31 04:05:00,
2013-03-30 23:10:00,57.4,52.2,30.08,North,0,0.0,0.0,83,0.00,,,0.00,WUHU21623XXSP,2013-03-31 04:10:00,
2013-03-30 23:15:00,57.2,52.4,30.08,North,0,0.0,0.0,84,0.00,,,0.00,WUHU21623XXSP,2013-03-31 04:15:00,
2013-03-30 23:20:00,57.0,52.2,30.08,North,0,0.0,0.0,84,0.00,,,0.00,WUHU21623XXSP,2013-03-31 04:20:00,
2013-03-30 23:25:00,57.0,52.2,30.08,North,0,0.0,0.0,84,0.00,,,0.00,WUHU21623XXSP,2013-03-31 04:25:00,
2013-03-30 23:30:00,57.0,52.2,30.08,North,0,0.0,0.0,84,0.00,,,0.00,WUHU21623XXSP,2013-03-31 04:30:00,
2013-03-30 23:35:00,57.0,52.2,30.08,North,0,0.0,0.0,84,0.00,,,0.00,WUHU21623XXSP,2013-03-31 04:35:00,
2013-03-30 23:40:00,57.0,52.2,30.08,North,0,0.0,0.0,84,0.00,,,0.00,WUHU21623XXSP,2013-03-31 04:40:00,
2013-03-30 23:45:00,57.0,52.2,30.09,North,0,0.0,0.0,84,0.00,,,0.00,WUHU21623XXSP,2013-03-31 04:45:00,
2013-03-30 23:50:00,56.8,52.0,30.09,North,0,0.0,0.0,84,0.00,,,0.00,WUHU21623XXSP,2013-03-31 04:50:00,
2013-03-30 23:55:00,56.8,52.0,30.08,North,0,0.0,0.0,84,0.00,,,0.00,WUHU21623XXSP,2013-03-31 04:55:00,